QPF
0.00 0.00 0.00 0.00 0.00 0.00 0.00 0.00 0.00 0.00 0.00 0.00 0.00 0.00 0.00 0.00 0.00 0.00 0.00 0.00 0.00 0.00 0.00 0.00 0.00 0.00 0.00 0.00 0.00 0.00 0.00 0.00 0.00 0.00 0.00 0.00 0.00 0.00 0.00 0.00 0.00 0.00 0.00
0.00 0.00 0.00 0.00 0.00 0.00 0.00 0.00 0.00 0.00 0.00 0.00 0.00 0.00 0.00 0.00 0.00 0.00 0.00 0.00 0.00 0.00 0.00 0.00 0.00 0.00 0.00 0.00 0.00 0.00 0.00 0.00 0.00 0.00 0.00 0.00 0.00 0.00 0.00 0.00 0.00 0.00 0.00
0.00 0.00 0.00 0.00 0.00 0.00 0.00 0.00 0.00 0.00 0.00 0.00 0.00 0.00 0.00 0.00 0.00 0.00 0.00 0.00 0.00 0.00 0.00 0.00 0.00 0.00 0.00 0.00 0.00 0.00 0.00 0.00 0.00 0.00 0.00 0.00 0.00 0.00 0.00 0.00 0.00 0.00 0.00
0.00 0.00 0.00 0.00 0.00 0.00 0.00 0.00 0.00 0.00 0.00 0.00 0.00 0.00 0.00 0.00 0.00 0.00 0.00 0.00 0.00 0.00 0.00 0.00 0.00 0.00 0.00 0.00 0.00 0.00 0.00 0.00 0.00 0.00 0.00 0.00 0.00 0.00 0.00 0.00 0.00 0.00 0.00
0.00 0.00 0.00 0.00 0.00 0.00 0.00 0.00 0.00 0.00 0.00 0.00 0.00 0.00 0.00 0.00 0.00 0.00 0.00 0.00 0.00 0.00 0.00 0.00 0.00 0.00 0.00 0.00 0.00 0.00 0.00 0.00 0.00 0.00 0.00 0.00 0.00 0.00 0.00 0.00 0.00 0.00 0.00
0.00 0.00 0.00 0.00 0.00 0.00 0.00 0.00 0.00 0.00 0.00 0.00 0.00 0.00 0.00 0.00 0.00 0.00 0.00 0.00 0.00 0.00 0.00 0.00 0.00 0.00 0.00 0.00 0.00 0.00 0.00 0.00 0.00 0.00 0.00 0.00 0.00 0.00 0.00 0.00 0.00 0.00 0.00
0.00 0.00 0.00 0.00 0.00 0.00 0.00 0.00 0.00 0.00 0.00 0.00 0.00 0.00 0.00 0.00 0.00 0.00 0.00 0.00 0.00 0.00 0.00 0.00 0.00 0.00 0.00 0.00 0.00 0.00 0.00 0.00 0.00 0.00 0.00 0.00 0.00 0.00 0.00 0.00 0.00 0.00 0.00
0.01 0.00 0.00 0.01 0.00 0.00 0.00 0.00 0.00 0.00 0.00 0.00 0.00 0.00 0.00 0.00 0.00 0.00 0.00 0.00 0.00 0.00 0.00 0.00 0.00 0.00 0.00 0.00 0.00 0.00 0.00 0.00 0.00 0.00 0.00 0.00 0.00 0.00 0.00 0.00 0.00 0.00 0.00
0.04 0.02 0.00 0.01 0.00 0.00 0.00 0.00 0.00 0.00 0.02 0.03 0.02 0.02 0.00 0.00 0.00 0.00 0.00 0.00 0.00 0.00 0.00 0.00 0.00 0.00 0.00 0.00 0.00 0.00 0.00 0.00 0.00 0.00 0.00 0.00 0.00 0.00 0.00 0.00 0.00 0.00 0.00
0.02 0.03 0.02 0.02 0.01 0.00 0.00 0.00 0.02 0.03 0.05 0.05 0.07 0.03 0.02 0.01 0.00 0.00 0.01 0.02 0.01 0.00 0.00 0.00 0.00 0.01 0.02 0.02 0.01 0.00 0.01 0.01 0.00 0.00 0.00 0.00 0.00 0.00 0.00 0.00 0.00 0.00 0.00
0.00 0.00 0.01 0.02 0.02 0.00 0.00 0.00 0.01 0.02 0.02 0.04 0.03 0.05 0.04 0.03 0.02 0.01 0.01 0.03 0.03 0.01 0.01 0.02 0.04 0.07 0.10 0.12 0.10 0.05 0.06 0.06 0.05 0.04 0.04 0.04 0.04 0.03 0.02 0.01 0.00 0.00 0.00
0.00 0.00 0.00 0.00 0.00 0.00 0.00 0.02 0.05 0.05 0.05 0.05 0.04 0.04 0.06 0.07 0.05 0.04 0.04 0.02 0.03 0.02 0.02 0.03 0.05 0.06 0.07 0.11 0.14 0.15 0.11 0.10 0.14 0.17 0.19 0.19 0.19 0.18 0.14 0.07 0.02 0.00 0.00
0.00 0.00 0.00 0.00 0.01 0.01 0.01 0.00 0.01 0.01 0.02 0.03 0.04 0.05 0.06 0.06 0.06 0.06 0.08 0.06 0.04 0.03 0.03 0.06 0.09 0.09 0.06 0.05 0.08 0.17 0.19 0.19 0.22 0.27 0.31 0.30 0.26 0.19 0.09 0.04 0.01 0.00 0.00
0.00 0.00 0.00 0.00 0.00 0.00 0.00 0.00 0.00 0.00 0.00 0.01 0.02 0.02 0.02 0.04 0.06 0.07 0.07 0.08 0.07 0.05 0.03 0.02 0.02 0.02 0.02 0.06 0.13 0.17 0.16 0.20 0.21 0.19 0.20 0.19 0.13 0.06 0.02 0.00 0.00 0.00 0.00
0.00 0.00 0.00 0.00 0.00 0.00 0.00 0.00 0.00 0.00 0.00 0.00 0.00 0.00 0.01 0.02 0.03 0.04 0.06 0.08 0.11 0.10 0.06 0.04 0.06 0.10 0.13 0.18 0.18 0.16 0.14 0.16 0.11 0.10 0.06 0.03 0.02 0.01 0.00 0.00 0.00 0.00 0.00
0.00 0.00 0.00 0.00 0.00 0.00 0.00 0.00 0.00 0.00 0.00 0.00 0.00 0.00 0.00 0.00 0.00 0.01 0.01 0.01 0.02 0.05 0.08 0.08 0.11 0.16 0.22 0.23 0.18 0.10 0.07 0.06 0.03 0.02 0.01 0.01 0.00 0.00 0.00 0.00 0.00 0.00 0.00
0.00 0.00 0.00 0.00 0.00 0.00 0.00 0.00 0.00 0.00 0.00 0.00 0.00 0.00 0.00 0.00 0.00 0.00 0.00 0.00 0.00 0.00 0.01 0.01 0.01 0.03 0.04 0.02 0.02 0.01 0.01 0.00 0.00 0.01 0.00 0.00 0.00 0.00 0.00 0.00 0.00 0.00 0.00
0.00 0.00 0.00 0.00 0.00 0.00 0.00 0.00 0.00 0.00 0.00 0.00 0.00 0.00 0.00 0.00 0.00 0.01 0.01 0.01 0.01 0.01 0.01 0.01 0.01 0.01 0.03 0.02 0.00 0.00 0.00 0.00 0.00 0.00 0.00 0.00 0.00 0.00 0.00 0.00 0.00 0.00 0.00
0.00 0.00 0.00 0.00 0.00 0.00 0.00 0.00 0.00 0.00 0.00 0.00 0.00 0.00 0.00 0.00 0.01 0.01 0.01 0.01 0.01 0.00 0.00 0.01 0.01 0.02 0.01 0.00 0.00 0.00 0.00 0.00 0.00 0.00 0.00 0.00 0.00 0.00 0.00 0.00 0.00 0.00 0.00
0.00 0.00 0.00 0.00 0.00 0.00 0.00 0.00 0.00 0.00 0.00 0.00 0.00 0.00 0.00 0.00 0.00 0.00 0.00 0.00 0.00 0.00 0.00 0.01 0.05 0.03 0.01 0.00 0.00 0.00 0.00 0.00 0.00 0.00 0.00 0.00 0.00 0.00 0.00 0.00 0.00 0.00 0.00
0.00 0.00 0.00 0.00 0.00 0.00 0.00 0.00 0.00 0.00 0.00 0.00 0.00 0.00 0.00 0.00 0.00 0.00 0.00 0.00 0.00 0.00 0.00 0.01 0.00 0.00 0.00 0.00 0.00 0.00 0.00 0.00 0.00 0.00 0.00 0.00 0.00 0.00 0.00 0.00 0.00 0.00 0.00
0.00 0.00 0.00 0.00 0.00 0.00 0.00 0.00 0.00 0.00 0.00 0.00 0.00 0.00 0.00 0.00 0.00 0.00 0.00 0.00 0.00 0.01 0.02 0.01 0.00 0.00 0.00 0.00 0.00 0.00 0.00 0.00 0.00 0.00 0.00 0.00 0.00 0.00 0.00 0.00 0.00 0.00 0.00
0.00 0.00 0.00 0.00 0.00 0.00 0.00 0.00 0.00 0.00 0.00 0.00 0.00 0.00 0.00 0.00 0.00 0.00 0.00 0.00 0.00 0.00 0.00 0.00 0.00 0.00 0.00 0.00 0.00 0.00 0.00 0.00 0.00 0.00 0.00 0.00 0.00 0.00 0.00 0.00 0.00 0.00 0.00
0.00 0.00 0.00 0.00 0.00 0.00 0.00 0.00 0.00 0.00 0.00 0.00 0.00 0.00 0.00 0.00 0.00 0.00 0.00 0.00 0.00 0.00 0.00 0.00 0.00 0.00 0.00 0.00 0.00 0.00 0.00 0.00 0.00 0.00 0.00 0.00 0.00 0.00 0.00 0.00 0.00 0.00 0.00
0.00 0.00 0.00 0.00 0.00 0.00 0.00 0.00 0.00 0.00 0.00 0.00 0.00 0.00 0.00 0.00 0.00 0.00 0.00 0.00 0.00 0.00 0.00 0.00 0.00 0.00 0.00 0.00 0.00 0.00 0.00 0.00 0.00 0.00 0.00 0.00 0.00 0.00 0.00 0.00 0.00 0.00 0.00
0.00 0.00 0.00 0.00 0.00 0.00 0.00 0.00 0.00 0.00 0.00 0.00 0.00 0.00 0.00 0.00 0.00 0.00 0.00 0.00 0.00 0.00 0.00 0.00 0.00 0.00 0.00 0.00 0.00 0.00 0.00 0.00 0.00 0.00 0.00 0.00 0.00 0.00 0.00 0.00 0.00 0.00 0.00
MSLP
1019.75 1020.04 1020.19 1020.32 1020.54 1020.74 1020.94 1021.14 1021.32 1021.47 1021.58 1021.59 1021.46 1021.49 1021.53 1021.71 1021.72 1021.89 1021.98 1021.69 1021.68 1021.83 1022.01 1022.33 1022.51 1022.72 1022.95 1023.05 1023.11 1023.29 1023.32 1023.45 1023.51 1023.42 1023.46 1023.54 1023.53 1023.55 1023.53 1023.42 1023.39 1023.35 1023.37
1019.20 1019.64 1020.00 1020.13 1020.29 1020.53 1020.71 1020.93 1021.14 1021.27 1021.44 1021.42 1021.30 1021.24 1021.25 1021.48 1021.52 1021.75 1021.91 1021.82 1021.76 1021.81 1021.95 1022.19 1022.43 1022.64 1022.75 1022.95 1023.11 1023.28 1023.47 1023.59 1023.83 1023.84 1023.77 1023.76 1023.89 1023.84 1023.83 1023.79 1023.69 1023.67 1023.56
1018.76 1019.15 1019.56 1019.90 1019.92 1020.16 1020.40 1020.72 1020.90 1021.02 1021.19 1021.20 1021.31 1021.16 1021.18 1021.31 1021.41 1021.58 1021.67 1021.71 1021.85 1021.87 1021.99 1022.19 1022.32 1022.54 1022.68 1022.93 1023.05 1023.25 1023.47 1023.66 1023.85 1023.92 1023.95 1024.00 1023.94 1024.06 1024.04 1023.99 1024.01 1023.85 1023.80
1018.28 1018.78 1019.15 1019.34 1019.44 1019.80 1020.14 1020.49 1020.72 1021.07 1021.11 1021.14 1021.07 1021.19 1021.16 1021.24 1021.30 1021.35 1021.44 1021.55 1021.65 1021.81 1021.94 1021.99 1022.13 1022.37 1022.62 1022.69 1022.87 1023.11 1023.47 1023.59 1023.81 1024.00 1023.97 1024.06 1023.93 1024.04 1024.12 1024.05 1024.11 1024.05 1023.95
1017.77 1018.12 1018.49 1018.71 1019.01 1019.46 1019.80 1020.13 1020.47 1020.68 1020.90 1021.00 1020.99 1021.01 1021.06 1021.18 1021.09 1021.07 1021.29 1021.33 1021.41 1021.60 1021.78 1021.80 1021.88 1022.13 1022.35 1022.56 1022.64 1022.83 1023.17 1023.55 1023.74 1023.91 1024.01 1024.08 1024.09 1024.00 1024.04 1024.09 1024.01 1024.02 1023.87
1017.26 1017.61 1017.92 1018.21 1018.52 1018.98 1019.43 1019.77 1020.02 1020.25 1020.36 1020.50 1020.79 1020.89 1020.98 1020.98 1021.03 1021.05 1020.94 1020.91 1021.04 1021.19 1021.42 1021.58 1021.63 1021.78 1021.99 1022.26 1022.48 1022.70 1022.96 1023.43 1023.78 1023.98 1024.00 1024.07 1024.15 1024.05 1024.02 1023.98 1023.93 1023.85 1023.78
1016.71 1017.11 1017.41 1017.77 1018.07 1018.48 1018.80 1019.20 1019.59 1019.94 1020.27 1020.36 1020.94 1021.16 1021.09 1020.92 1020.92 1020.88 1020.71 1020.73 1020.79 1020.90 1021.21 1021.43 1021.60 1021.77 1021.87 1021.82 1022.00 1022.42 1022.75 1023.22 1023.65 1023.89 1024.08 1024.17 1024.22 1024.14 1024.11 1024.05 1024.13 1024.07 1023.91
1016.35 1016.71 1016.93 1017.34 1017.68 1018.08 1018.47 1018.82 1019.23 1019.71 1019.79 1020.07 1020.71 1021.39 1021.32 1021.01 1020.47 1020.34 1020.48 1020.62 1020.59 1020.66 1020.96 1021.04 1021.16 1021.47 1021.63 1021.82 1022.06 1022.17 1022.46 1022.89 1023.47 1023.82 1023.99 1024.15 1024.25 1024.32 1024.25 1024.12 1024.07 1024.07 1023.93
1016.17 1016.43 1016.69 1017.00 1017.40 1017.74 1018.00 1018.16 1018.55 1019.03 1019.35 1019.67 1019.80 1020.46 1021.27 1021.19 1020.80 1020.11 1020.07 1020.22 1020.59 1020.79 1020.82 1020.96 1021.09 1021.23 1021.55 1021.75 1021.95 1022.34 1022.53 1022.89 1023.47 1023.70 1023.82 1024.08 1024.30 1024.45 1024.45 1024.22 1024.03 1023.96 1023.87
1015.98 1016.15 1016.37 1016.60 1016.91 1017.31 1017.74 1017.72 1017.98 1018.24 1018.87 1019.28 1019.82 1019.78 1019.97 1020.12 1020.46 1020.57 1020.19 1020.14 1020.28 1020.63 1020.72 1020.94 1021.22 1021.58 1021.84 1022.23 1022.55 1023.04 1023.28 1023.74 1023.71 1023.99 1023.99 1023.88 1024.25 1024.49 1024.42 1024.32 1024.06 1023.90 1023.81
1015.57 1015.80 1016.05 1016.32 1016.70 1016.93 1017.14 1017.39 1017.62 1017.89 1018.15 1018.46 1018.77 1019.24 1019.40 1019.73 1019.96 1020.35 1020.28 1020.46 1020.69 1020.83 1020.75 1020.71 1021.11 1021.46 1021.99 1022.38 1023.50 1023.07 1023.79 1023.80 1023.98 1024.27 1024.67 1024.64 1024.39 1024.55 1024.34 1024.35 1024.04 1023.95 1023.93
1015.29 1015.26 1015.60 1015.92 1016.07 1016.24 1016.44 1016.80 1017.17 1017.60 1017.79 1017.95 1018.14 1018.34 1018.67 1018.92 1019.14 1019.64 1020.00 1020.29 1020.59 1021.05 1021.27 1021.47 1021.58 1021.70 1021.92 1022.62 1021.91 1022.72 1022.81 1024.17 1024.35 1024.11 1024.65 1024.65 1024.86 1024.80 1024.59 1024.21 1024.11 1024.00 1023.89
1015.39 1015.27 1015.32 1015.61 1015.85 1016.01 1016.06 1016.44 1016.87 1017.22 1017.45 1017.68 1017.83 1017.97 1018.07 1018.36 1018.60 1019.01 1019.42 1019.96 1020.53 1021.34 1021.81 1021.86 1022.08 1021.75 1021.79 1022.19 1022.57 1022.47 1023.23 1024.27 1023.88 1024.47 1024.19 1024.10 1024.04 1024.39 1024.23 1024.18 1024.13 1023.87 1023.52
1015.71 1015.40 1015.46 1015.52 1015.72 1015.80 1016.01 1016.25 1016.70 1017.16 1017.41 1017.54 1017.60 1017.70 1017.76 1018.02 1018.40 1018.64 1019.08 1019.78 1020.66 1021.38 1022.01 1021.93 1022.08 1022.66 1022.38 1022.39 1022.34 1023.23 1023.34 1023.47 1023.65 1024.14 1024.03 1023.93 1023.93 1024.23 1024.17 1023.95 1023.82 1023.85 1023.75
1016.38 1016.28 1016.11 1016.09 1016.31 1016.45 1016.44 1016.79 1017.09 1017.67 1017.66 1017.95 1018.20 1018.38 1018.53 1018.74 1018.80 1019.10 1019.25 1019.42 1019.82 1020.86 1021.45 1021.75 1022.35 1022.32 1022.10 1023.07 1023.19 1023.04 1023.68 1023.78 1023.93 1023.91 1024.19 1024.14 1023.76 1023.99 1023.96 1023.70 1023.73 1023.66 1023.63
1016.96 1016.88 1016.85 1016.93 1017.02 1017.01 1017.07 1017.25 1017.88 1018.05 1018.25 1018.73 1018.87 1018.70 1019.29 1019.49 1019.58 1019.63 1019.88 1019.97 1020.07 1020.39 1021.16 1021.64 1022.26 1022.57 1023.20 1022.80 1022.81 1023.39 1023.91 1023.59 1023.73 1023.99 1024.05 1023.68 1023.79 1023.82 1023.67 1023.58 1023.77 1023.61 1023.44
1017.58 1017.55 1017.64 1017.61 1017.63 1017.72 1017.78 1018.10 1018.34 1018.61 1018.91 1019.27 1019.39 1019.59 1019.90 1019.80 1020.08 1020.41 1020.50 1020.70 1020.89 1021.09 1021.43 1022.30 1022.61 1022.86 1023.23 1023.14 1023.09 1023.77 1023.65 1023.63 1023.93 1023.90 1023.98 1023.61 1023.61 1023.29 1023.33 1023.34 1023.50 1023.38 1023.03
1018.28 1018.27 1018.28 1018.27 1018.56 1018.71 1018.79 1018.90 1019.14 1019.32 1019.53 1019.72 1019.83 1020.14 1020.35 1020.31 1020.42 1020.69 1020.99 1021.32 1021.60 1021.75 1021.90 1022.55 1023.01 1023.21 1023.15 1023.15 1023.50 1023.83 1023.73 1023.77 1024.00 1023.93 1023.83 1023.54 1023.27 1023.11 1023.18 1023.24 1023.18 1022.83 1022.33
1018.90 1018.86 1018.80 1019.04 1019.32 1019.42 1019.53 1019.66 1019.86 1020.14 1020.35 1020.34 1020.55 1020.65 1020.59 1020.66 1020.97 1021.32 1021.57 1021.79 1021.87 1021.90 1021.99 1022.45 1023.13 1023.28 1023.26 1023.46 1023.72 1023.57 1023.51 1023.97 1023.97 1023.86 1023.71 1023.44 1023.39 1023.21 1022.93 1022.92 1022.55 1022.45 1022.58
1019.45 1019.46 1019.58 1019.73 1019.92 1020.04 1020.14 1020.34 1020.58 1021.02 1021.16 1021.20 1021.37 1021.30 1021.07 1021.24 1021.53 1021.87 1022.19 1022.32 1022.41 1022.56 1022.65 1022.89 1023.28 1023.42 1023.45 1023.54 1023.76 1024.05 1024.16 1024.19 1024.14 1023.94 1023.72 1023.47 1023.30 1023.13 1022.91 1022.66 1022.50 1022.44 1022.38
1020.09 1020.13 1020.18 1020.37 1020.36 1020.53 1020.55 1020.87 1021.41 1021.77 1021.80 1021.89 1022.10 1021.94 1021.83 1021.63 1021.73 1021.96 1022.36 1022.61 1022.68 1022.78 1022.98 1023.23 1023.44 1023.68 1023.87 1024.02 1024.02 1024.24 1024.47 1024.65 1024.50 1024.29 1024.04 1023.69 1023.42 1023.14 1022.86 1022.61 1022.40 1022.21 1022.00
1020.79 1020.76 1020.85 1020.91 1021.02 1020.85 1020.99 1021.42 1021.75 1022.20 1022.38 1022.61 1022.81 1022.81 1022.69 1022.87 1022.54 1022.43 1022.46 1022.66 1022.84 1023.01 1023.32 1023.61 1023.87 1024.08 1024.20 1024.29 1024.35 1024.58 1024.72 1024.93 1024.67 1024.21 1024.13 1023.36 1023.15 1022.85 1022.61 1022.41 1022.13 1021.81 1021.61
1021.52 1021.55 1021.65 1021.49 1021.43 1021.60 1021.69 1021.85 1022.10 1022.74 1023.12 1023.38 1023.47 1023.47 1023.30 1023.20 1023.24 1023.27 1023.07 1022.90 1022.99 1022.90 1023.23 1023.57 1023.98 1024.31 1024.42 1024.45 1024.53 1024.60 1024.81 1024.84 1024.80 1024.13 1024.17 1023.63 1023.08 1022.92 1022.55 1022.22 1021.87 1021.58 1021.26
1022.19 1022.22 1022.10 1022.05 1022.15 1022.23 1022.18 1022.32 1022.85 1023.47 1023.65 1023.84 1023.93 1023.88 1023.66 1023.52 1023.42 1023.37 1023.36 1023.32 1023.53 1023.64 1023.71 1023.67 1024.05 1024.18 1024.27 1024.26 1024.28 1024.28 1024.51 1024.71 1024.67 1024.04 1024.06 1024.10 1023.35 1022.99 1022.40 1021.90 1021.50 1021.25 1021.03
1022.76 1022.66 1022.80 1022.94 1022.82 1022.80 1022.78 1023.06 1023.57 1023.93 1024.25 1024.29 1024.22 1024.09 1023.91 1023.67 1023.16 1023.29 1023.57 1023.70 1023.82 1023.92 1023.74 1023.54 1023.54 1023.51 1023.41 1023.21 1023.41 1024.05 1024.52 1024.83 1024.89 1024.49 1024.21 1024.29 1023.75 1023.20 1022.30 1021.77 1021.54 1021.20 1020.95
1023.19 1023.40 1023.56 1023.43 1023.37 1023.19 1022.91 1023.28 1023.96 1024.17 1024.50 1024.46 1024.37 1024.32 1023.68 1023.80 1023.59 1023.54 1023.81 1024.04 1024.15 1024.20 1024.19 1024.14 1024.18 1024.06 1024.04 1023.95 1023.61 1023.90 1024.26 1024.95 1025.17 1024.67 1024.21 1024.36 1023.98 1023.81 1022.91 1021.93 1021.55 1021.20 1020.90
Thickness
5697 5695 5694 5691 5688 5685 5682 5679 5676 5673 5671 5670 5670 5669 5667 5664 5663 5660 5656 5655 5654 5651 5648 5644 5642 5639 5636 5634 5633 5630 5629 5626 5624 5624 5623 5621 5620 5619 5618 5618 5618 5617 5616
5696 5692 5690 5688 5686 5683 5680 5677 5674 5671 5668 5667 5666 5666 5665 5662 5660 5657 5654 5651 5648 5646 5643 5639 5637 5634 5632 5629 5627 5625 5622 5619 5616 5615 5615 5614 5612 5612 5611 5611 5610 5610 5610
5695 5693 5688 5686 5684 5681 5678 5674 5670 5668 5666 5664 5662 5661 5660 5658 5656 5653 5651 5648 5643 5641 5638 5633 5631 5628 5626 5623 5621 5619 5615 5613 5610 5609 5608 5607 5607 5605 5604 5603 5602 5602 5602
5694 5691 5687 5684 5683 5678 5674 5670 5667 5663 5662 5660 5658 5655 5654 5653 5651 5649 5646 5644 5640 5637 5633 5629 5626 5623 5619 5617 5615 5612 5608 5607 5604 5601 5601 5600 5600 5599 5597 5597 5595 5595 5595
5694 5690 5687 5685 5682 5677 5672 5669 5665 5663 5659 5656 5654 5652 5650 5647 5646 5644 5641 5638 5635 5632 5627 5624 5622 5617 5614 5611 5608 5606 5602 5598 5596 5595 5593 5592 5591 5591 5590 5589 5589 5588 5588
5692 5689 5686 5682 5680 5676 5671 5667 5664 5660 5657 5653 5650 5647 5643 5641 5639 5637 5635 5633 5631 5627 5623 5619 5617 5613 5609 5605 5601 5598 5595 5590 5586 5584 5584 5583 5581 5581 5581 5581 5581 5581 5582
5688 5686 5684 5680 5677 5673 5670 5665 5659 5655 5649 5646 5639 5636 5634 5633 5631 5629 5628 5627 5624 5620 5615 5610 5608 5605 5602 5601 5596 5590 5586 5581 5577 5575 5572 5570 5569 5570 5570 5570 5568 5568 5570
5685 5682 5680 5676 5670 5666 5663 5658 5653 5647 5645 5639 5632 5623 5624 5625 5626 5624 5621 5618 5615 5612 5607 5604 5601 5598 5596 5593 5587 5583 5578 5574 5568 5564 5563 5561 5559 5558 5558 5559 5559 5558 5558
5680 5677 5674 5670 5666 5662 5659 5656 5649 5644 5641 5634 5630 5621 5608 5612 5612 5618 5615 5611 5605 5601 5599 5595 5592 5589 5585 5582 5578 5573 5569 5564 5558 5554 5552 5550 5548 5546 5544 5546 5547 5548 5549
5673 5672 5668 5666 5663 5658 5653 5652 5647 5643 5634 5629 5621 5619 5614 5612 5607 5606 5604 5601 5596 5591 5588 5584 5581 5577 5573 5566 5558 5553 5551 5548 5544 5540 5539 5539 5533 5530 5532 5533 5534 5536 5537
5667 5665 5663 5659 5656 5652 5649 5645 5642 5637 5632 5627 5621 5612 5607 5602 5598 5594 5599 5586 5580 5576 5575 5574 5569 5565 5560 5549 5542 5540 5534 5534 5531 5525 5522 5520 5521 5518 5516 5514 5519 5520 5521
5661 5659 5655 5652 5650 5648 5646 5641 5637 5631 5627 5621 5617 5612 5605 5598 5594 5584 5576 5573 5571 5562 5556 5553 5550 5547 5543 5536 5537 5530 5525 5514 5513 5513 5508 5505 5503 5502 5505 5505 5504 5506 5508
5653 5653 5649 5645 5642 5639 5637 5633 5629 5625 5620 5615 5611 5606 5601 5595 5588 5582 5574 5563 5556 5544 5535 5532 5529 5529 5527 5523 5516 5519 5511 5497 5502 5497 5497 5495 5496 5493 5492 5493 5492 5496 5499
5644 5644 5641 5638 5635 5632 5629 5626 5623 5617 5612 5608 5605 5600 5596 5590 5581 5574 5565 5554 5539 5527 5516 5513 5510 5505 5506 5505 5506 5496 5497 5492 5491 5483 5483 5484 5485 5481 5481 5483 5485 5485 5484
5630 5629 5629 5628 5624 5621 5619 5616 5612 5604 5601 5596 5591 5585 5580 5572 5567 5560 5553 5545 5536 5516 5502 5495 5491 5493 5490 5484 5483 5487 5479 5476 5473 5475 5471 5469 5472 5470 5470 5471 5470 5473 5472
5616 5615 5614 5612 5610 5609 5607 5604 5596 5592 5588 5581 5577 5574 5564 5558 5552 5546 5537 5529 5519 5504 5491 5479 5475 5475 5468 5469 5470 5469 5461 5464 5463 5461 5461 5462 5460 5459 5459 5460 5457 5458 5459
5601 5601 5599 5599 5597 5595 5595 5590 5585 5580 5575 5569 5564 5558 5550 5546 5539 5530 5522 5514 5502 5487 5477 5462 5461 5462 5461 5459 5457 5452 5454 5453 5452 5451 5447 5450 5448 5450 5449 5447 5443 5443 5446
5587 5586 5586 5586 5582 5580 5578 5576 5572 5568 5563 5557 5553 5545 5538 5533 5527 5518 5509 5499 5488 5477 5468 5459 5452 5450 5453 5452 5448 5444 5445 5443 5439 5437 5436 5437 5438 5438 5436 5433 5432 5433 5439
5573 5574 5574 5572 5569 5567 5565 5562 5558 5553 5548 5544 5538 5531 5527 5520 5512 5503 5495 5488 5480 5472 5465 5456 5446 5444 5445 5444 5440 5439 5438 5433 5429 5427 5425 5427 5425 5426 5427 5424 5426 5426 5423
5560 5561 5560 5558 5557 5555 5553 5549 5544 5537 5533 5529 5522 5517 5514 5506 5498 5490 5483 5476 5470 5463 5456 5449 5443 5440 5439 5437 5433 5429 5426 5424 5421 5420 5419 5419 5418 5417 5417 5416 5414 5411 5408
5547 5547 5547 5546 5546 5544 5542 5536 5529 5524 5520 5515 5509 5504 5498 5494 5488 5482 5474 5467 5461 5455 5450 5444 5440 5435 5427 5427 5424 5420 5417 5412 5411 5410 5410 5410 5409 5409 5407 5404 5401 5397 5392
5534 5535 5535 5534 5533 5533 5530 5523 5518 5512 5507 5501 5494 5489 5485 5479 5476 5471 5466 5460 5454 5447 5439 5434 5428 5425 5422 5418 5415 5411 5406 5399 5398 5402 5398 5402 5398 5398 5394 5391 5387 5382 5377
5520 5521 5521 5522 5521 5518 5514 5510 5507 5498 5491 5486 5480 5475 5473 5470 5466 5460 5457 5453 5448 5444 5437 5430 5424 5418 5414 5410 5405 5399 5397 5390 5388 5391 5385 5385 5385 5383 5380 5377 5373 5369 5366
5508 5508 5509 5509 5506 5504 5501 5499 5492 5485 5479 5474 5470 5467 5464 5461 5457 5453 5448 5445 5439 5433 5428 5424 5418 5412 5407 5403 5399 5394 5389 5385 5381 5381 5376 5364 5370 5366 5365 5363 5360 5357 5355
5496 5498 5497 5493 5493 5491 5490 5485 5479 5473 5467 5464 5462 5460 5457 5453 5452 5448 5441 5435 5429 5424 5420 5415 5410 5405 5401 5398 5393 5385 5377 5370 5366 5368 5365 5357 5354 5350 5350 5349 5347 5344 5342
5485 5484 5482 5483 5483 5481 5480 5475 5468 5463 5458 5456 5454 5451 5450 5445 5442 5438 5431 5425 5419 5414 5408 5403 5398 5393 5389 5384 5381 5376 5369 5355 5349 5347 5352 5345 5342 5337 5332 5333 5333 5333 5333